Weather Roundup
Issued by NWS Chicago, IL

Home | Current Version | Previous Version | Graphics & Text | Print | Product List | Glossary On
Versions: 1 2 3 4 5 6 7 8 9 10 11 12 13 14 15 16 17 18 19 20 21 22 23 24 25 26 27 28 29 30 31 32 33 34 35 36 37 38 39 40 41 42 43 44 45 46 47 48 49 50
115
NZUS59 KLOT 301203
HRRLOT

CHICAGO AREA WEATHER ROUNDUP
NATIONAL WEATHER SERVICE CHICAGO/ROMEOVILLE IL
700 AM CDT SAT APR 30 2016

NOTE: "FAIR" INDICATES FEW OR NO CLOUDS BELOW 12,000 FEET WITH NO
SIGNIFICANT WEATHER AND/OR OBSTRUCTIONS TO VISIBILITY.

* THESE STATIONS ARE NOT UNDER NWS QUALITY CONTROL. THEY ALSO MAY NOT
  REPORT WEATHER SUCH AS PRECIPITATION OR FOG.

ILZ005-006-012>014-019>023-301300-
NORTHEAST ILLINOIS

CITY           SKY/WX    TMP DP  RH WIND       PRES   REMARKS
OHARE          CLOUDY    46  42  86 E9        30.07R FOG
6HR MIN TEMP:  43; 6HR MAX TEMP:  46;

MIDWAY         CLOUDY    49  42  77 E10       30.06S
6HR MIN TEMP:  45; 6HR MAX TEMP:  49;

AURORA         CLOUDY    47  43  86 E13       30.03F FOG
6HR MIN TEMP:  44; 6HR MAX TEMP:  47;

LANSING*       CLOUDY    47  41  80 E8        30.07R
WAUKEGAN       CLOUDY    43  40  89 E12       30.08R
6HR MIN TEMP:  42; 6HR MAX TEMP:  45;

DUPAGE AIRPORT CLOUDY    46  41  82 E8        30.04F HAZE
6HR MIN TEMP:  43; 6HR MAX TEMP:  46;

WHEELING       CLOUDY    45  41  86 E7        30.09R
6HR MIN TEMP:  43; 6HR MAX TEMP:  45;

MORRIS*        CLOUDY    48  44  85 E12       30.01F FOG
$$

WIZ051-052-058>065-066-070>072-301300-
SOUTHEAST WISCONSIN

CITY           SKY/WX    TMP DP  RH WIND       PRES   REMARKS
MILWAUKEE      CLOUDY    43  39  86 E12       30.10S
6HR MIN TEMP:  40; 6HR MAX TEMP:  43;

KENOSHA*       CLOUDY    44  39  82 E10       30.09R
RACINE*        CLOUDY    44  38  79 E12       30.11S
BURLINGTON     PTSUNNY   42  37  83 E6        30.09R
WAUKESHA       SUNNY     37  32  81 NE5       30.10F
$$

INZ001>003-010>013-019-020-301300-
NORTHWEST INDIANA

CITY           SKY/WX    TMP DP  RH WIND       PRES   REMARKS
GARY*          CLOUDY    48  48 100 E9        30.08R
MICHIGAN CITY* NOT AVBL
RENSSELAER*    NOT AVBL
VALPARAISO     PTSUNNY   45  41  86 E12       30.07R
$$

LMZ740>746-301300-
SOUTHERN LAKE MICHIGAN

STATION/POSITION TIME  SKY/WX   TEMP WIND        PRES    VSBY
                                AIR  DIR/SP/G
                 (UTC)          (F)  (DEG/KT/KT) (MB)    (MI)
HARRISON CRIB    NOT AVBL
BURNHAM HARBOR   1200            45   70/  8/ 10   N/A
CALUMET HARBOR   1100            47   70/  8/ 12 1017.3R
BURNS HARBOR     1103            47  100/  8/ 12 1018.3S
MICHIGAN CITY    NOT AVBL
$$

ABBREVIATIONS USED IN REMARKS
   TC - TEMPERATURE IN CELSIUS
  WCI - WIND CHILL INDEX
   HX - HEAT INDEX
  VSB - VISIBILITY
$$




USA.gov is the U.S. government's official web portal to all federal, state and local government web resources and services.